Location: Vlasim
(49.7000°N, 14.9000°E)
Time: 00:28:39
(UTC+01:00)

ISS - Visible Passes

Search period start: 21 January 2021 00:00
Search period end: 31 January 2021 00:00
Orbit: 418 x 419 km, 51.6° (Epoch: 21 January)

Date Brightness Start Highest point End Pass type
(mag) Time Alt. Az. Time Alt. Az. Time Alt. Az.
21 Jan -2.3 17:55:17 10° SSW 17:58:03 24° SE 17:59:24 19° ESE visible
21 Jan -1.1 19:31:12 10° WSW 19:32:21 20° WSW 19:32:21 20° WSW visible
22 Jan -3.7 18:43:29 10° WSW 18:46:41 67° S 18:46:41 67° S visible
23 Jan -3.3 17:55:52 10° SW 17:59:08 49° SSE 18:00:58 23° E visible
23 Jan -1.2 19:32:33 10° W 19:33:55 22° W 19:33:55 22° W visible
24 Jan -3.8 18:44:44 10° W 18:48:06 75° NNW 18:48:08 75° N visible
25 Jan -3.8 17:56:56 10° WSW 18:00:18 89° S 18:02:20 22° ENE visible
25 Jan -1.3 19:33:55 10° W 19:35:17 22° WNW 19:35:17 22° WNW visible
26 Jan -3.6 18:46:03 10° W 18:49:24 60° N 18:49:27 60° N visible
27 Jan -3.6 17:58:12 10° W 18:01:33 65° N 18:03:37 21° ENE visible
27 Jan -1.3 19:35:10 10° WNW 19:36:33 23° WNW 19:36:33 23° WNW visible
28 Jan -3.7 18:47:20 10° WNW 18:50:41 63° N 18:50:44 63° NNE visible
29 Jan -3.6 17:59:28 10° W 18:02:49 60° N 18:04:54 21° ENE visible
29 Jan -1.4 19:36:20 10° WNW 19:37:51 24° WNW 19:37:51 24° WNW visible
30 Jan -3.9 18:48:30 10° WNW 18:51:52 86° N 18:52:04 79° E visible
